Content
SEND FEEDBACK

Daily
Averages
Monthly
Summary
United States of America

ALPINE MEADOWS, CALIFORNIA


Home > North America > United States > California
Elevation: 6230 feet     Latitude: 39 12N     Longitude: 120 14W

WEATHER
 
SELECT A DAY
Number of Records: 287,699;   Date Range: 1/1/95 - 10/24/14
 
SHARE

PRINT THIS DATA

[ ← Previous Day ]
WEATHER ALMANAC - SEPTEMBER 16, 2013
[ Next Day → ]
[ °C ]   °F
Weather ElementAverageHighLow
Temperature54.4 °F77 °F (1:52 pm)35.6 °F (5:15 am)
Dewpoint35 °F39.2 °F (6:35 pm)30.2 °F (4:55 am)
Humidity52.3 %81 % (5:15 am)21 % (1:52 pm)
Barometer30.06 in30.10 in (7:45 am)30.02 in (5:45 pm)
Wind Speed6.5 mph21.9 mph (10:50 am)
Wind Gust33.4 mph (11:50 am)
Weather ElementAverage
Visibility10 mi
Wind DirectionSSE (153.2 °)

Weather ElementTotal
Precipitation---
Heating Degree Days8.7 (Base 65)
Growing Degree Days6.3 (Base 50)
Averaged from 50 records on September 16, 2013
WEATHER CONDITIONS BREAKOUT
WIND DIRECTION BREAKOUT
WEATHER BY HOUR - SEPTEMBER 16, 2013
[ °C ]   °F
Local TimeTemperatureDewpointHumidityBarometerVisibilityWind DirectionWind SpeedGust SpeedPrecipitationEventsConditions
12:35 AM46.4 °F32.0 °F57 %30.09 in10.0 miSSE (160°)3.5 mphClear
12:55 AM48.2 °F33.8 °F58 %30.09 in10.0 miSSE (160°)3.5 mphClear
1:15 AM48.2 °F33.8 °F58 %30.09 in10.0 miNNE (20°)3.5 mphClear
1:35 AM48.2 °F33.8 °F58 %30.09 in10.0 miNE (40°)3.5 mphClear
1:55 AM46.4 °F33.8 °F62 %30.09 in10.0 miNNW (340°)3.5 mphClear
2:15 AM44.6 °F33.8 °F66 %30.09 in10.0 miCalmClear
2:35 AM41.0 °F32.0 °F70 %30.09 in10.0 miCalmClear
2:55 AM39.2 °F32.0 °F75 %30.09 in10.0 miCalmClear
3:15 AM39.2 °F32.0 °F75 %30.09 in10.0 miCalmClear
3:35 AM39.2 °F32.0 °F75 %30.09 in10.0 miCalmClear
3:55 AM41.0 °F32.0 °F70 %30.09 in10.0 miNorth (360°)3.5 mphClear
4:15 AM39.2 °F32.0 °F75 %30.08 in10.0 miNE (50°)3.5 mphClear
4:35 AM39.2 °F32.0 °F75 %30.08 in10.0 miCalmClear
4:55 AM37.4 °F30.2 °F75 %30.08 in10.0 miNorth (10°)4.6 mphClear
5:15 AM35.6 °F30.2 °F81 %30.08 in10.0 miNorth (360°)4.6 mphClear
5:35 AM39.2 °F32.0 °F75 %30.09 in10.0 miNNW (340°)4.6 mphClear
5:55 AM39.2 °F32.0 °F75 %30.09 in10.0 miNorth (360°)3.5 mphClear
6:15 AM39.2 °F32.0 °F75 %30.09 in10.0 miNNE (30°)3.5 mphClear
6:35 AM39.2 °F32.0 °F75 %30.09 in10.0 miNorth (10°)4.6 mphClear
6:45 AM39.2 °F32.0 °F75 %30.09 in10.0 miNorth (10°)5.8 mphClear
7:45 AM44.6 °F32.0 °F61 %30.10 in10.0 miCalmClear
8:50 AM64.4 °F35.6 °F34 %30.10 in10.0 miSE (140°)4.6 mphClear
9:50 AM68.0 °F35.6 °F30 %30.10 in10.0 miSouth (190°)6.9 mph20.7 mphClear
10:50 AM71.6 °F33.8 °F25 %30.10 in10.0 miSSW (210°)21.9 mph28.8 mphClear
11:50 AM73.4 °F32.0 °F22 %30.09 in10.0 miSSW (210°)15.0 mph33.4 mphClear
12:45 PM75.2 °F33.8 °F22 %30.08 in10.0 miSSW (210°)16.1 mph26.5 mphClear
1:52 PM77.0 °F33.8 °F21 %30.06 in10.0 miSW (230°)18.4 mph27.6 mphClear
2:55 PM75.2 °F33.8 °F22 %30.04 in10.0 miWSW (240°)19.6 mph32.2 mphClear
3:55 PM75.2 °F33.8 °F22 %30.03 in10.0 miSW (220°)16.1 mph25.3 mphClear
4:45 PM73.4 °F35.6 °F25 %30.03 in10.0 miSW (230°)18.4 mph25.3 mphClear
5:45 PM71.6 °F37.4 °F29 %30.02 in10.0 miWSW (240°)11.5 mph17.3 mphClear
5:55 PM71.6 °F37.4 °F29 %30.02 in10.0 miSW (230°)16.1 mph20.7 mphClear
6:15 PM68.0 °F37.4 °F33 %30.02 in10.0 miSW (230°)15.0 mph19.6 mphClear
6:35 PM68.0 °F39.2 °F35 %30.02 in10.0 miSW (230°)11.5 mph19.6 mphClear
6:55 PM64.4 °F39.2 °F40 %30.02 in10.0 miSW (230°)6.9 mphClear
7:15 PM62.6 °F39.2 °F42 %30.02 in10.0 miWSW (250°)8.1 mphClear
7:35 PM60.8 °F39.2 °F45 %30.03 in10.0 miWest (260°)3.5 mphClear
7:55 PM60.8 °F39.2 °F45 %30.03 in10.0 miCalmClear
8:15 PM59.0 °F39.2 °F48 %30.03 in10.0 miCalmClear
8:35 PM57.2 °F39.2 °F51 %30.03 in10.0 miWSW (250°)8.1 mphClear
8:55 PM57.2 °F39.2 °F51 %30.04 in10.0 miWSW (240°)8.1 mphClear
9:15 PM57.2 °F37.4 °F48 %30.04 in10.0 miWSW (240°)8.1 mphClear
9:35 PM57.2 °F37.4 °F48 %30.04 in10.0 miWest (260°)5.8 mphClear
9:55 PM55.4 °F37.4 °F51 %30.03 in10.0 miWNW (290°)6.9 mphClear
10:15 PM55.4 °F37.4 °F51 %30.03 in10.0 miWSW (250°)8.1 mphClear
10:35 PM57.2 °F39.2 °F51 %30.04 in10.0 miWNW (290°)4.6 mphClear
10:55 PM53.6 °F37.4 °F54 %30.03 in10.0 miCalmClear
11:15 PM51.8 °F35.6 °F54 %30.03 in10.0 miNNE (20°)3.5 mphClear
11:35 PM51.8 °F37.4 °F58 %30.03 in10.0 miNNE (20°)4.6 mphClear
11:55 PM50.0 °F37.4 °F62 %30.02 in10.0 miCalmClear
Hourly data recorded from KTRK, located miles away from Alpine Meadows, California







STORIES FROM OUR PARTNERS